ICT,Max TemperatureF,Mean TemperatureF,Min TemperatureF,Max Dew PointF,MeanDew PointF,Min DewpointF,Max Humidity, Mean Humidity, Min Humidity, Max Sea Level PressureIn, Mean Sea Level PressureIn, Min Sea Level PressureIn, Max VisibilityMiles, Mean VisibilityMiles, Min VisibilityMiles, Max Wind SpeedMPH, Mean Wind SpeedMPH, Max Gust SpeedMPH,PrecipitationIn, CloudCover, Events, WindDirDegrees
2013-1-1,85,72,59,64,57,52,100,60,35,30.04,29.92,29.83,7,6,2,6,2,,0.00,6,,167
2013-1-2,86,72,59,68,60,55,100,65,37,30.01,29.93,29.86,6,5,2,5,1,,0.00,3,,170
2013-1-3,89,76,62,68,63,55,100,67,35,30.04,29.93,29.86,7,5,1,7,2,,0.00,3,,177
2013-1-4,86,74,62,66,61,55,100,63,35,30.01,29.90,29.80,7,6,2,6,2,,0.00,3,,110
2013-1-5,89,74,59,68,60,54,100,64,33,29.95,29.86,29.77,7,5,0,6,1,,0.00,1,Fog,170
2013-1-6,89,76,62,68,59,52,100,58,31,29.98,29.88,29.80,7,5,1,6,2,,0.00,2,,166
2013-1-7,88,72,55,64,57,52,100,57,31,29.98,29.89,29.80,7,5,2,6,2,,0.00,2,,208
2013-1-8,88,74,59,63,58,52,100,62,33,29.98,29.86,29.77,7,5,1,9,3,,0.00,2,,190
2013-1-9,88,71,55,65,58,54,100,59,31,29.95,29.86,29.77,7,5,1,8,2,,0.00,1,,200
2013-1-10,86,72,57,64,59,55,100,62,39,29.95,29.86,29.80,7,5,1,7,2,,0.00,4,,161
2013-1-11,85,72,59,63,59,54,100,66,39,29.98,29.89,29.83,7,6,4,7,2,,0.00,4,,142
2013-1-12,84,72,60,65,59,54,100,64,39,29.98,29.89,29.83,7,6,2,5,2,,0.00,3,Rain,113
2013-1-13,85,71,57,65,59,55,100,70,39,29.98,29.88,29.80,7,4,0,5,1,,0.00,2,Fog,356
2013-1-14,87,72,58,63,60,54,100,66,33,29.98,29.88,29.83,7,5,1,9,2,,0.00,2,,200
2013-1-15,89,74,59,67,61,55,94,62,33,30.01,29.92,29.86,7,6,2,10,2,,0.00,1,,207
2013-1-16,89,76,62,66,61,52,100,68,29,30.06,29.97,29.89,7,5,2,6,2,,0.00,3,,167
2013-1-17,86,73,60,65,59,52,100,59,31,30.09,30.00,29.92,7,6,2,6,2,,0.00,3,,0
2013-1-18,87,74,60,64,57,52,100,55,31,30.18,30.06,29.98,7,6,3,6,2,,0.00,3,,164
2013-1-19,86,70,55,60,56,50,100,58,30,30.12,30.01,29.89,7,6,2,6,2,,0.00,1,Fog,310
2013-1-20,88,70,53,62,54,48,100,56,27,30.07,29.98,29.89,7,6,2,7,1,,0.00,1,Fog,18
2013-1-21,90,72,54,61,56,48,100,59,25,30.09,29.99,29.92,7,6,2,6,1,,0.00,1,,95
2013-1-22,91,72,53,64,56,50,100,61,27,30.06,29.97,29.86,7,6,2,5,1,,0.00,2,,18
2013-1-23,91,74,57,67,58,54,100,56,31,30.01,29.93,29.83,7,6,2,7,2,,0.00,2,,0
2013-1-24,93,76,60,68,62,57,100,63,31,30.01,29.90,29.83,7,6,2,5,2,,0.00,2,,170
2013-1-25,91,76,62,68,63,59,100,59,36,29.98,29.88,29.80,6,5,2,10,3,18,0.00,2,,188
2013-1-26,91,76,62,68,62,55,100,61,31,29.95,29.87,29.80,6,6,2,9,2,,0.00,3,,200
2013-1-27,91,78,64,70,64,61,100,64,38,30.01,29.92,29.86,6,6,3,7,2,,0.00,4,,148
2013-1-28,87,78,68,69,63,59,100,61,42,30.01,29.95,29.89,7,6,4,9,3,,0.00,4,,158
2013-1-29,90,78,66,67,62,57,100,61,35,30.04,29.96,29.89,7,6,2,5,2,,0.00,3,,115
2013-1-30,88,78,68,68,64,57,100,66,40,30.04,29.96,29.88,7,6,4,5,1,,0.00,6,,165
2013-1-31,81,72,66,69,66,61,100,83,57,30.09,30.04,29.98,7,6,1,6,1,,0.00,6,Rain-Thunderstorm,12